Meteo pe oră la Dzikow

Astăzi, 8 Martie, Luni

Timp Temperatura Precipitaţii Vânt Presiune Umiditate
00:00 -2°C° 0 mm 4 m/s 750 mmHg 87%
01:00 -2°C° 0 mm 4 m/s 750 mmHg 92%
02:00 -1°C° 0.2 mm 3 m/s 750 mmHg 93%
03:00 -1°C° 0.2 mm 3 m/s 751 mmHg 93%
04:00 -1°C° 0.2 mm 2 m/s 751 mmHg 94%
05:00 -2°C° 0 mm 2 m/s 751 mmHg 92%
06:00 -2°C° 0 mm 2 m/s 751 mmHg 91%
07:00 -3°C° 0 mm 2 m/s 751 mmHg 89%
08:00 -2°C° 0 mm 2 m/s 752 mmHg 75%
09:00 +1°C° 0 mm 2 m/s 753 mmHg 61%
10:00 +2°C° 0 mm 2 m/s 753 mmHg 46%
11:00 +3°C° 0 mm 2 m/s 753 mmHg 43%
12:00 +3°C° 0 mm 2 m/s 753 mmHg 40%
13:00 +4°C° 0 mm 2 m/s 753 mmHg 37%
14:00 +4°C° 0 mm 2 m/s 753 mmHg 38%
15:00 +4°C° 0 mm 2 m/s 753 mmHg 40%
16:00 +3°C° 0 mm 3 m/s 753 mmHg 41%
17:00 +2°C° 0 mm 2 m/s 754 mmHg 47%
18:00 +2°C° 0 mm 1 m/s 754 mmHg 53%
19:00 +1°C° 0 mm 1 m/s 754 mmHg 59%
20:00 0°C° 0 mm 1 m/s 754 mmHg 60%
21:00 0°C° 0 mm 1 m/s 754 mmHg 61%
22:00 -1°C° 0 mm 0 m/s 754 mmHg 62%
23:00 -1°C° 0 mm 0 m/s 754 mmHg 63%

Mâine, 9 Martie, Marţi

Timp Temperatura Precipitaţii Vânt Presiune Umiditate
00:00 -2°C° 0 mm 0 m/s 754 mmHg 63%
01:00 -2°C° 0 mm 0 m/s 754 mmHg 64%
02:00 -2°C° 0 mm 0 m/s 754 mmHg 64%
03:00 -2°C° 0 mm 0 m/s 754 mmHg 65%
04:00 -2°C° 0 mm 0 m/s 753 mmHg 65%
05:00 -2°C° 0 mm 0 m/s 753 mmHg 64%
06:00 -2°C° 0 mm 0 m/s 753 mmHg 64%
07:00 -2°C° 0 mm 0 m/s 753 mmHg 63%
08:00 0°C° 0 mm 0 m/s 753 mmHg 58%
09:00 +1°C° 0 mm 0 m/s 753 mmHg 52%
10:00 +2°C° 0 mm 0 m/s 753 mmHg 47%
11:00 +4°C° 0 mm 1 m/s 753 mmHg 43%
12:00 +4°C° 0 mm 1 m/s 753 mmHg 39%
13:00 +5°C° 0 mm 1 m/s 753 mmHg 35%
14:00 +5°C° 0 mm 1 m/s 752 mmHg 35%
15:00 +5°C° 0 mm 1 m/s 752 mmHg 35%
16:00 +5°C° 0 mm 1 m/s 751 mmHg 35%
17:00 +3°C° 0 mm 1 m/s 752 mmHg 39%
18:00 +2°C° 0 mm 1 m/s 752 mmHg 44%
19:00 0°C° 0 mm 1 m/s 752 mmHg 49%
20:00 0°C° 0 mm 1 m/s 752 mmHg 51%
21:00 0°C° 0 mm 1 m/s 752 mmHg 52%
22:00 0°C° 0 mm 1 m/s 752 mmHg 54%
23:00 -1°C° 0 mm 1 m/s 752 mmHg 55%

Poimâine, 10 Martie, Miercuri

Timp Temperatura Precipitaţii Vânt Presiune Umiditate
00:00 -1°C° 0 mm 1 m/s 752 mmHg 56%
01:00 -1°C° 0 mm 1 m/s 751 mmHg 57%
02:00 -1°C° 0 mm 1 m/s 751 mmHg 58%
03:00 -1°C° 0 mm 1 m/s 751 mmHg 58%
04:00 -1°C° 0 mm 1 m/s 751 mmHg 58%
05:00 0°C° 0 mm 1 m/s 751 mmHg 59%
06:00 0°C° 0 mm 1 m/s 751 mmHg 60%
07:00 0°C° 0 mm 1 m/s 751 mmHg 61%
08:00 +1°C° 0 mm 1 m/s 751 mmHg 60%
09:00 +3°C° 0 mm 1 m/s 752 mmHg 60%
10:00 +4°C° 0 mm 1 m/s 752 mmHg 59%
11:00 +5°C° 0 mm 1 m/s 752 mmHg 58%
12:00 +4°C° 0 mm 2 m/s 752 mmHg 56%
13:00 +5°C° 0 mm 2 m/s 752 mmHg 54%
14:00 +5°C° 0 mm 2 m/s 751 mmHg 59%
15:00 +5°C° 0 mm 2 m/s 751 mmHg 65%
16:00 +4°C° 0 mm 2 m/s 751 mmHg 70%
17:00 +3°C° 0 mm 2 m/s 751 mmHg 77%
18:00 +2°C° 0 mm 2 m/s 751 mmHg 83%
19:00 +2°C° 0 mm 1 m/s 751 mmHg 90%
20:00 +1°C° 0 mm 2 m/s 750 mmHg 89%
21:00 +1°C° 0 mm 2 m/s 750 mmHg 89%
22:00 +1°C° 0 mm 3 m/s 750 mmHg 88%
23:00 +1°C° 0 mm 3 m/s 749 mmHg 87%

11 Martie, Joi

Timp Temperatura Precipitaţii Vânt Presiune Umiditate
00:00 +1°C° 0 mm 3 m/s 749 mmHg 86%
01:00 0°C° 0 mm 3 m/s 748 mmHg 85%
02:00 +1°C° 0 mm 3 m/s 747 mmHg 84%
03:00 +1°C° 0 mm 3 m/s 746 mmHg 82%
04:00 +1°C° 0 mm 4 m/s 745 mmHg 80%
05:00 +1°C° 0.4 mm 4 m/s 745 mmHg 83%
06:00 +1°C° 0.4 mm 5 m/s 744 mmHg 86%
07:00 +2°C° 0.4 mm 5 m/s 743 mmHg 89%
08:00 +2°C° 1.1 mm 5 m/s 742 mmHg 89%
09:00 +4°C° 1.1 mm 4 m/s 742 mmHg 90%
10:00 +4°C° 1.1 mm 4 m/s 741 mmHg 91%
11:00 +5°C° 0.7 mm 5 m/s 740 mmHg 90%
12:00 +6°C° 0.7 mm 5 m/s 740 mmHg 90%
13:00 +7°C° 0.7 mm 5 m/s 739 mmHg 89%
14:00 +7°C° 1.1 mm 5 m/s 739 mmHg 89%
15:00 +7°C° 1.1 mm 5 m/s 738 mmHg 89%
16:00 +8°C° 1.1 mm 5 m/s 738 mmHg 89%
17:00 +8°C° 0.2 mm 6 m/s 738 mmHg 86%
18:00 +8°C° 0.2 mm 6 m/s 738 mmHg 83%
19:00 +8°C° 0.2 mm 7 m/s 738 mmHg 80%
20:00 +7°C° 0 mm 6 m/s 738 mmHg 79%
21:00 +7°C° 0 mm 6 m/s 739 mmHg 78%
22:00 +6°C° 0 mm 5 m/s 739 mmHg 77%
23:00 +4°C° 0 mm 6 m/s 739 mmHg 77%

12 Martie, Vineri

Timp Temperatura Precipitaţii Vânt Presiune Umiditate
00:00 +4°C° 0 mm 6 m/s 739 mmHg 77%
01:00 +4°C° 0 mm 6 m/s 739 mmHg 77%
02:00 +3°C° 0 mm 7 m/s 740 mmHg 76%
03:00 +3°C° 0 mm 7 m/s 740 mmHg 75%
04:00 +3°C° 0 mm 7 m/s 740 mmHg 74%
05:00 +1°C° 0 mm 8 m/s 740 mmHg 77%
06:00 +1°C° 0 mm 9 m/s 741 mmHg 79%
07:00 +1°C° 0 mm 10 m/s 741 mmHg 81%
08:00 +2°C° 0.1 mm 9 m/s 742 mmHg 77%
09:00 +2°C° 0.1 mm 9 m/s 743 mmHg 73%
10:00 +3°C° 0.1 mm 9 m/s 744 mmHg 69%
11:00 +5°C° 0.1 mm 9 m/s 744 mmHg 64%
12:00 +6°C° 0.1 mm 9 m/s 744 mmHg 59%
13:00 +7°C° 0.1 mm 9 m/s 744 mmHg 53%
14:00 +7°C° 0 mm 8 m/s 744 mmHg 53%
15:00 +7°C° 0 mm 8 m/s 744 mmHg 53%
16:00 +6°C° 0 mm 7 m/s 744 mmHg 53%
17:00 +5°C° 0 mm 6 m/s 744 mmHg 58%
18:00 +5°C° 0 mm 5 m/s 744 mmHg 64%
19:00 +4°C° 0 mm 4 m/s 745 mmHg 70%
20:00 +4°C° 0 mm 4 m/s 745 mmHg 71%
21:00 +3°C° 0 mm 4 m/s 745 mmHg 72%
22:00 +3°C° 0 mm 4 m/s 745 mmHg 74%
23:00 +1°C° 0 mm 4 m/s 745 mmHg 74%

13 Martie, Sâmbătă

Timp Temperatura Precipitaţii Vânt Presiune Umiditate
00:00 +1°C° 0 mm 4 m/s 745 mmHg 75%
01:00 +2°C° 0 mm 3 m/s 745 mmHg 76%
02:00 +1°C° 0 mm 4 m/s 744 mmHg 76%
03:00 +1°C° 0 mm 4 m/s 744 mmHg 76%
04:00 +1°C° 0 mm 4 m/s 744 mmHg 76%
05:00 +1°C° 0 mm 4 m/s 743 mmHg 77%
06:00 +1°C° 0 mm 4 m/s 743 mmHg 78%
07:00 +1°C° 0 mm 4 m/s 743 mmHg 79%
08:00 +4°C° 0 mm 4 m/s 743 mmHg 72%
09:00 +5°C° 0 mm 5 m/s 743 mmHg 66%
10:00 +7°C° 0 mm 6 m/s 742 mmHg 59%
11:00 +7°C° 0 mm 6 m/s 742 mmHg 61%
12:00 +7°C° 0 mm 6 m/s 742 mmHg 63%
13:00 +7°C° 0 mm 6 m/s 742 mmHg 65%
14:00 +7°C° 0.1 mm 6 m/s 742 mmHg 69%
15:00 +6°C° 0.1 mm 5 m/s 742 mmHg 74%
16:00 +6°C° 0.1 mm 4 m/s 742 mmHg 78%
17:00 +5°C° 0 mm 4 m/s 742 mmHg 80%
18:00 +4°C° 0 mm 3 m/s 742 mmHg 83%
19:00 +5°C° 0 mm 2 m/s 742 mmHg 85%
20:00 +4°C° 0.1 mm 3 m/s 742 mmHg 84%
21:00 +4°C° 0.1 mm 4 m/s 743 mmHg 83%
22:00 +4°C° 0.1 mm 4 m/s 743 mmHg 82%
23:00 +3°C° 0.1 mm 4 m/s 743 mmHg 82%
Arată mai mult

Formular de consimțământ

Meteoprog și furnizorii noștri de servicii pot stoca și accesa date personale, precum cookies, identificatori de dispozitiv sau alte tehnologii similare pe dispozitivul dumneavoastră și procesa astfel de date pentru a personaliza conținutul și reclamele, dar și pentru a oferi caracteristici de social media și pentru a analiza traficul.

  • Stocarea și/sau accesarea informațiilor pe dispozitivul dumneavoastră

    Cookies, identificatori de dispozitiv sau alte informații pot fi stocate sau accesate pe dispozitiv în scopurile indicate mai sus.

  • Reclame și conținut personalizat, evaluarea reclamelor și a conținutului, informații despre audiențe și dezvoltarea produselor

    Reclamele și conținutul pot fi personalizate pe baza unui profil. Pot fi adăugate date suplimentare pentru a personaliza mai bine reclamele și conținutul. Performanța reclamelor și conținutului poate fi măsurată. Pot fi obținute informații despre utilizatorii care au văzut reclamele și conținutul. Aceste date pot fi utilizate pentru a dezvolta sau îmbunătăți experiența utilizatorilor, sistemele și software-ul.

Dând clic pe ‘Sunt de acord’, permiteți utilizarea cookie-urilor menționate, a identificatorilor de dispozitiv, balizelor web sau altor tehnologii similare. Setările pot fi modificate din browser-ul dispozitivului dumneavoastră.

În anumite scopuri, interesele legitime pot prima asupra consimțământului. Puteți citi mai multe informații în acest sens în Politica privind Confidențialitatea Datelor și Cookie.